[[{"header":{"parameterUnit":"m.s-1","parameterCategory":1,"la1":30.2992,"la2":30.254,"lo1":-89.0895,"lo2":-89.0443,"dy":0.0025,"dx":0.0025,"nx":19,"ny":19,"refTime":"2026-03-17T09:00:00:Z","depth":0,"parameterNumber":2,"parameterNumberName":"U-component_of_WINDS"},"data":[0,0,0,-1.9838,-1.9839,-1.9836,-1.9835,-1.9864,-1.9864,0,0,0,0,0,0,0,0,0,0,0,-1.9857,-1.9858,-1.9838,-1.9839,-1.9836,-1.9835,-1.9864,-1.9865,0,0,0,0,0,0,0,0,0,0,0,-1.9857,-1.9858,-1.9859,-1.9839,-1.9836,-1.9835,-1.9864,-1.9855,0,0,0,0,0,0,0,0,0,0,-1.9853,-1.9887,-1.9857,-1.9859,-1.9839,-1.9836,-1.9835,-1.9854,-1.9856,-1.9879,0,-1.9903,0,-1.9884,-1.9868,-1.9869,0,0,0,-1.9826,-1.9886,-1.9869,-1.9859,-1.9839,-1.9836,-1.9833,-1.9854,-1.9856,-1.9881,-1.9903,-1.9903,-1.9885,-1.9869,-1.9869,-2.0044,-2.0046,0,0,-1.9826,-1.9866,-1.9868,-1.9871,-1.9871,-1.9833,-1.9833,-1.9855,-1.9882,-1.9903,-1.9903,-1.9885,-1.9869,-1.987,-2.0043,-2.0045,0,0,0,-1.9835,-1.9867,-1.9849,-1.987,-1.9867,-1.9834,-1.9834,-1.9881,-1.9871,-1.9903,-1.9885,-1.9869,-1.987,-2.0041,-2.0044,-2.0155,0,0,0,-1.9835,-1.9872,-1.9849,-1.9874,-1.9867,-1.9874,-1.986,-1.987,-1.9871,-1.9885,-1.9869,-1.9871,-2.004,-2.0043,-2.0148,-2.0202,0,0,0,-1.9851,-1.9874,-1.988,-1.9877,-1.9876,-1.9872,-1.9864,-1.9869,-1.9861,-1.9869,-1.9871,-2.0039,-2.0042,-2.0143,-2.0192,-2.0262,0,0,0,-1.9881,-1.9978,-1.9882,-1.9983,-1.9877,-1.994,-1.9863,-1.9908,-1.9928,-1.987,-2.004,-2.0043,-2.0141,-2.0186,-2.0256,-2.033,-2.0364,0,0,-2.0026,-1.9996,-2.0053,-1.9967,-2.0058,-1.9937,-2.0045,-2.0024,-1.9988,-2.0028,-2.0032,-2.0151,-2.0191,-2.0261,-2.0535,-2.0562,0,0,0,-2.0113,-2.0154,-2.0169,-2.0189,-2.0176,-2.017,-2.0128,-2.0121,-2.0153,-2.0016,-2.0192,-2.0215,-2.0254,-2.0288,-2.0311,-2.0343,-2.006,-2.0059,-2.0059,-2.0377,-2.0325,-2.0416,-2.0365,-2.0386,-2.0343,-2.0356,-2.034,-2.0281,-2.0324,-2.0336,-2.0508,-2.0549,-2.0566,-2.0601,-2.0368,-2.0369,-2.0369,-2.0369,-2.0587,-2.0639,-2.0559,-2.0619,-2.0565,-2.0615,-2.0579,-2.0536,-2.0577,-2.0494,-2.0526,-2.0442,-2.0598,-2.0625,-2.0377,-2.0376,-2.0375,-2.0374,-2.0374,-2.0756,-2.0773,-2.0762,-2.0787,-2.0813,-2.0757,-2.0801,-2.0749,-2.0701,-2.0732,-2.0742,-2.074,-2.0734,-2.074,-2.0741,-2.0741,-2.0742,-2.0742,-2.0743,-2.0938,-2.0922,-2.0964,-2.0959,-2.0967,-2.097,-2.0929,-2.0936,-2.093,-2.0889,-2.0889,-2.083,-2.0621,-2.0571,-2.0752,-2.075,-2.0749,-2.0748,-2.0747,-2.1175,-2.1113,-2.1179,-2.1186,-2.1178,-2.1209,-2.1142,-2.116,-2.1158,-2.1182,-2.1114,-2.0968,-2.0935,-2.0916,-2.0875,-2.1123,-2.1123,-2.1123,-2.1123,-2.132,-2.1298,-2.1354,-2.1371,-2.138,-2.1327,-2.1407,-2.1377,-2.1336,-2.1333,-2.1288,-2.1229,-2.1212,-2.1189,-2.1164,-2.1125,-2.1431,-2.1432,-2.1432,-2.1464,-2.1441,-2.1517,-2.1476,-2.1465,-2.1459,-2.1533,-2.1557,-2.1498,-2.1443,-2.1329,-2.1316,-2.1219,-2.1189,-2.1135,-2.1098,-2.1025,0,0]},{"header":{"parameterUnit":"m.s-1","parameterCategory":1,"la1":30.2992,"la2":30.254,"lo1":-89.0895,"lo2":-89.0443,"dy":0.0025,"dx":0.0025,"nx":19,"ny":19,"refTime":"2026-03-17T09:00:00:Z","depth":0,"parameterNumber":3,"parameterNumberName":"V-component_of_WINDS"},"data":[0,0,0,0.8241,0.8238,0.8113,0.8113,0.7956,0.7954,0,0,0,0,0,0,0,0,0,0,0,0.8281,0.828,0.8241,0.8238,0.8113,0.8112,0.7956,0.7954,0,0,0,0,0,0,0,0,0,0,0,0.8281,0.828,0.8279,0.8237,0.8113,0.8112,0.7956,0.8049,0,0,0,0,0,0,0,0,0,0,0.817,0.8211,0.8281,0.8279,0.8237,0.8113,0.8112,0.8053,0.8043,0.8014,0,0.7991,0,0.797,0.7944,0.7944,0,0,0,0.8235,0.8219,0.8183,0.8279,0.8236,0.8114,0.8168,0.8048,0.8036,0.8001,0.7988,0.7982,0.7968,0.7943,0.7942,0.7789,0.7789,0,0,0.8242,0.826,0.8191,0.8176,0.8197,0.8173,0.8165,0.8041,0.8028,0.7988,0.7979,0.7965,0.7942,0.7941,0.779,0.7789,0,0,0,0.8264,0.8265,0.8231,0.8182,0.816,0.8169,0.816,0.8033,0.8021,0.7977,0.7963,0.7941,0.794,0.779,0.7789,0.7779,0,0,0,0.8268,0.8278,0.8234,0.8244,0.8162,0.8095,0.8155,0.8029,0.8015,0.7964,0.7941,0.7938,0.7791,0.779,0.778,0.777,0,0,0,0.8288,0.828,0.8263,0.8245,0.8193,0.8097,0.8077,0.8026,0.8007,0.7944,0.7938,0.7791,0.779,0.7782,0.7772,0.7734,0,0,0,0.8314,0.8255,0.8263,0.8191,0.8194,0.8092,0.8078,0.8001,0.7945,0.7941,0.7791,0.779,0.7782,0.7773,0.7736,0.7704,0.7694,0,0,0.8249,0.8247,0.8204,0.8208,0.8109,0.811,0.8009,0.794,0.7917,0.7833,0.7829,0.778,0.7772,0.7734,0.763,0.7621,0,0,0,0.8189,0.8157,0.8127,0.8077,0.8025,0.7978,0.7924,0.7899,0.7827,0.7878,0.7756,0.7751,0.7728,0.7712,0.7705,0.7683,0.7784,0.7784,0.7784,0.812,0.8096,0.8021,0.7982,0.7933,0.7878,0.7836,0.7792,0.778,0.7752,0.7726,0.7665,0.7647,0.7642,0.762,0.7709,0.7709,0.7709,0.7709,0.802,0.7971,0.7959,0.7883,0.7857,0.7791,0.7737,0.7731,0.7665,0.7683,0.7661,0.768,0.7633,0.7613,0.7708,0.7708,0.7708,0.7708,0.7708,0.7971,0.7943,0.7915,0.784,0.7785,0.7747,0.7686,0.7664,0.7643,0.7622,0.7591,0.7591,0.7587,0.761,0.7609,0.7609,0.7609,0.7609,0.7609,0.7929,0.7899,0.785,0.7791,0.7756,0.7708,0.7654,0.7618,0.7573,0.7562,0.7561,0.7551,0.7635,0.7655,0.7605,0.7606,0.7606,0.7607,0.7607,0.7834,0.7853,0.7777,0.7743,0.7672,0.7618,0.7593,0.7523,0.7491,0.7461,0.7456,0.7522,0.7518,0.7523,0.754,0.7463,0.7463,0.7463,0.7463,0.779,0.7788,0.7706,0.7652,0.7597,0.7567,0.7482,0.744,0.7398,0.7377,0.7385,0.7406,0.7413,0.7404,0.7412,0.7427,0.7324,0.7324,0.7323,0.7729,0.7721,0.7652,0.7615,0.7558,0.751,0.7429,0.7366,0.7323,0.7317,0.7359,0.7364,0.7398,0.741,0.7403,0.7416,0.7443,0,0]}]]